• En España
  • Lista de países
  • Para 7 días
  • Temperatura del agua
  • Mapa Satelital
  • El tiempo en el mapa
  • Informadores
  • user-avatar
    Iniciar sesión

    Tiempo cada hora Fier

    Hoy, 23 Septiembre, Sábado

    Tiempo Temperatura Precipitaciones Viento Presión Humedad
    00:00 +15°C° 0 mm 2 mps 764 mmHg 69%
    01:00 +15°C° 0 mm 2 mps 764 mmHg 66%
    02:00 +15°C° 0 mm 2 mps 764 mmHg 66%
    03:00 +15°C° 0 mm 1 mps 764 mmHg 66%
    04:00 +14°C° 0 mm 1 mps 764 mmHg 65%
    05:00 +15°C° 0 mm 2 mps 764 mmHg 62%
    06:00 +16°C° 0 mm 2 mps 764 mmHg 59%
    07:00 +17°C° 0 mm 2 mps 764 mmHg 56%
    08:00 +19°C° 0 mm 2 mps 764 mmHg 51%
    09:00 +21°C° 0 mm 2 mps 764 mmHg 47%
    10:00 +24°C° 0 mm 2 mps 764 mmHg 42%
    11:00 +25°C° 0 mm 2 mps 764 mmHg 41%
    12:00 +25°C° 0 mm 3 mps 764 mmHg 40%
    13:00 +26°C° 0 mm 3 mps 764 mmHg 39%
    14:00 +26°C° 0 mm 3 mps 763 mmHg 41%
    15:00 +25°C° 0 mm 3 mps 763 mmHg 44%
    16:00 +25°C° 0 mm 3 mps 763 mmHg 47%
    17:00 +23°C° 0 mm 2 mps 763 mmHg 55%
    18:00 +20°C° 0 mm 2 mps 763 mmHg 63%
    19:00 +20°C° 0 mm 1 mps 763 mmHg 71%
    20:00 +19°C° 0 mm 1 mps 764 mmHg 71%
    21:00 +19°C° 0 mm 1 mps 764 mmHg 72%
    22:00 +19°C° 0 mm 1 mps 764 mmHg 73%
    23:00 +18°C° 0 mm 1 mps 764 mmHg 71%

    Mañana, 24 Septiembre, Domingo

    Tiempo Temperatura Precipitaciones Viento Presión Humedad
    00:00 +18°C° 0 mm 1 mps 764 mmHg 70%
    01:00 +18°C° 0 mm 1 mps 763 mmHg 69%
    02:00 +18°C° 0 mm 1 mps 763 mmHg 68%
    03:00 +18°C° 0 mm 1 mps 763 mmHg 68%
    04:00 +16°C° 0 mm 1 mps 763 mmHg 67%
    05:00 +18°C° 0 mm 1 mps 763 mmHg 63%
    06:00 +18°C° 0 mm 2 mps 763 mmHg 59%
    07:00 +19°C° 0 mm 2 mps 763 mmHg 55%
    08:00 +21°C° 0 mm 2 mps 763 mmHg 48%
    09:00 +24°C° 0 mm 1 mps 763 mmHg 41%
    10:00 +26°C° 0 mm 1 mps 763 mmHg 34%
    11:00 +27°C° 0 mm 2 mps 762 mmHg 34%
    12:00 +27°C° 0 mm 2 mps 762 mmHg 33%
    13:00 +27°C° 0 mm 2 mps 762 mmHg 32%
    14:00 +27°C° 0 mm 2 mps 762 mmHg 35%
    15:00 +27°C° 0 mm 2 mps 761 mmHg 37%
    16:00 +26°C° 0 mm 2 mps 761 mmHg 39%
    17:00 +24°C° 0 mm 2 mps 761 mmHg 46%
    18:00 +21°C° 0 mm 2 mps 761 mmHg 53%
    19:00 +21°C° 0 mm 1 mps 762 mmHg 59%
    20:00 +20°C° 0 mm 1 mps 762 mmHg 60%
    21:00 +19°C° 0 mm 2 mps 762 mmHg 61%
    22:00 +19°C° 0 mm 2 mps 762 mmHg 62%
    23:00 +18°C° 0 mm 2 mps 762 mmHg 61%

    Pasado mañana, 25 Septiembre, Lunes

    Tiempo Temperatura Precipitaciones Viento Presión Humedad
    00:00 +18°C° 0 mm 2 mps 761 mmHg 61%
    01:00 +18°C° 0 mm 2 mps 761 mmHg 60%
    02:00 +18°C° 0 mm 3 mps 761 mmHg 60%
    03:00 +18°C° 0 mm 3 mps 761 mmHg 60%
    04:00 +18°C° 0 mm 3 mps 761 mmHg 60%
    05:00 +19°C° 0 mm 3 mps 761 mmHg 58%
    06:00 +19°C° 0 mm 3 mps 761 mmHg 57%
    07:00 +20°C° 0 mm 3 mps 761 mmHg 56%
    08:00 +22°C° 0,1 mm 3 mps 761 mmHg 52%
    09:00 +24°C° 0,1 mm 3 mps 761 mmHg 49%
    10:00 +25°C° 0,1 mm 3 mps 761 mmHg 45%
    11:00 +26°C° 0,1 mm 3 mps 761 mmHg 44%
    12:00 +26°C° 0,1 mm 3 mps 761 mmHg 44%
    13:00 +27°C° 0,1 mm 3 mps 761 mmHg 43%
    14:00 +26°C° 0,1 mm 3 mps 761 mmHg 44%
    15:00 +26°C° 0,1 mm 3 mps 761 mmHg 46%
    16:00 +25°C° 0,1 mm 3 mps 761 mmHg 48%
    17:00 +24°C° 0 mm 3 mps 761 mmHg 54%
    18:00 +21°C° 0 mm 3 mps 761 mmHg 60%
    19:00 +19°C° 0 mm 2 mps 761 mmHg 66%
    20:00 +19°C° 0 mm 2 mps 761 mmHg 67%
    21:00 +19°C° 0 mm 2 mps 761 mmHg 68%
    22:00 +18°C° 0 mm 2 mps 762 mmHg 69%
    23:00 +18°C° 0 mm 2 mps 761 mmHg 70%

    26 Septiembre, Martes

    Tiempo Temperatura Precipitaciones Viento Presión Humedad
    00:00 +18°C° 0 mm 2 mps 761 mmHg 71%
    01:00 +17°C° 0 mm 2 mps 761 mmHg 72%
    02:00 +17°C° 0 mm 2 mps 761 mmHg 73%
    03:00 +17°C° 0 mm 2 mps 761 mmHg 73%
    04:00 +17°C° 0 mm 2 mps 761 mmHg 74%
    05:00 +18°C° 0 mm 2 mps 761 mmHg 71%
    06:00 +18°C° 0 mm 2 mps 761 mmHg 69%
    07:00 +19°C° 0 mm 2 mps 761 mmHg 66%
    08:00 +22°C° 0 mm 1 mps 761 mmHg 58%
    09:00 +24°C° 0 mm 1 mps 761 mmHg 50%
    10:00 +27°C° 0 mm 1 mps 762 mmHg 42%
    11:00 +27°C° 0,1 mm 2 mps 761 mmHg 41%
    12:00 +27°C° 0,1 mm 2 mps 761 mmHg 40%
    13:00 +28°C° 0,1 mm 3 mps 761 mmHg 40%
    14:00 +27°C° 0,1 mm 3 mps 761 mmHg 43%
    15:00 +27°C° 0,1 mm 3 mps 761 mmHg 45%
    16:00 +26°C° 0,1 mm 3 mps 761 mmHg 48%
    17:00 +24°C° 0 mm 3 mps 761 mmHg 55%
    18:00 +21°C° 0 mm 2 mps 761 mmHg 62%
    19:00 +20°C° 0 mm 2 mps 762 mmHg 69%
    20:00 +19°C° 0 mm 2 mps 762 mmHg 70%
    21:00 +19°C° 0 mm 2 mps 762 mmHg 71%
    22:00 +20°C° 0 mm 1 mps 762 mmHg 71%
    23:00 +20°C° 0 mm 1 mps 762 mmHg 71%

    27 Septiembre, Miércoles

    Tiempo Temperatura Precipitaciones Viento Presión Humedad
    00:00 +19°C° 0 mm 1 mps 762 mmHg 71%
    01:00 +19°C° 0 mm 1 mps 762 mmHg 71%
    02:00 +18°C° 0 mm 2 mps 762 mmHg 71%
    03:00 +18°C° 0 mm 2 mps 762 mmHg 71%
    04:00 +17°C° 0 mm 2 mps 762 mmHg 72%
    05:00 +18°C° 0 mm 2 mps 763 mmHg 69%
    06:00 +20°C° 0 mm 1 mps 763 mmHg 66%
    07:00 +21°C° 0 mm 1 mps 763 mmHg 63%
    08:00 +23°C° 0 mm 1 mps 763 mmHg 57%
    09:00 +25°C° 0 mm 1 mps 763 mmHg 50%
    10:00 +27°C° 0 mm 1 mps 763 mmHg 44%
    11:00 +27°C° 0 mm 2 mps 763 mmHg 42%
    12:00 +28°C° 0 mm 2 mps 763 mmHg 41%
    13:00 +28°C° 0 mm 3 mps 763 mmHg 40%
    14:00 +27°C° 0,1 mm 3 mps 763 mmHg 45%
    15:00 +26°C° 0,1 mm 3 mps 763 mmHg 49%
    16:00 +26°C° 0,1 mm 3 mps 763 mmHg 54%
    17:00 +24°C° 0,1 mm 3 mps 763 mmHg 62%
    18:00 +23°C° 0,1 mm 2 mps 763 mmHg 70%
    19:00 +20°C° 0,1 mm 2 mps 763 mmHg 78%
    20:00 +20°C° 0 mm 2 mps 763 mmHg 77%
    21:00 +21°C° 0 mm 1 mps 764 mmHg 77%
    22:00 +20°C° 0 mm 1 mps 764 mmHg 76%
    23:00 +20°C° 0 mm 1 mps 764 mmHg 76%

    28 Septiembre, Jueves

    Tiempo Temperatura Precipitaciones Viento Presión Humedad
    00:00 +20°C° 0 mm 1 mps 764 mmHg 75%
    01:00 +20°C° 0 mm 1 mps 764 mmHg 74%
    02:00 +19°C° 0 mm 2 mps 763 mmHg 75%
    03:00 +18°C° 0 mm 2 mps 763 mmHg 75%
    04:00 +18°C° 0 mm 2 mps 763 mmHg 75%
    05:00 +19°C° 0 mm 2 mps 763 mmHg 73%
    06:00 +20°C° 0 mm 2 mps 763 mmHg 70%
    07:00 +20°C° 0 mm 2 mps 764 mmHg 67%
    08:00 +23°C° 0 mm 2 mps 764 mmHg 60%
    09:00 +25°C° 0 mm 1 mps 764 mmHg 53%
    10:00 +27°C° 0 mm 1 mps 764 mmHg 46%
    11:00 +27°C° 0,1 mm 2 mps 763 mmHg 45%
    12:00 +28°C° 0,1 mm 2 mps 763 mmHg 44%
    13:00 +28°C° 0,1 mm 3 mps 763 mmHg 43%
    14:00 +27°C° 0,4 mm 3 mps 763 mmHg 47%
    15:00 +26°C° 0,4 mm 3 mps 763 mmHg 51%
    16:00 +26°C° 0,4 mm 3 mps 763 mmHg 54%
    17:00 +24°C° 0,3 mm 3 mps 763 mmHg 61%
    18:00 +23°C° 0,3 mm 2 mps 763 mmHg 67%
    19:00 +20°C° 0,3 mm 2 mps 763 mmHg 74%
    20:00 +20°C° 0,2 mm 2 mps 763 mmHg 74%
    21:00 +20°C° 0,2 mm 2 mps 763 mmHg 75%
    22:00 +19°C° 0,2 mm 2 mps 763 mmHg 75%
    23:00 +19°C° 0,1 mm 2 mps 763 mmHg 76%
    Mostrar más